EST,Max TemperatureF,Mean TemperatureF,Min TemperatureF,Max Dew PointF,MeanDew PointF,Min DewpointF,Max Humidity, Mean Humidity, Min Humidity, Max Sea Level PressureIn, Mean Sea Level PressureIn, Min Sea Level PressureIn, Max VisibilityMiles, Mean VisibilityMiles, Min VisibilityMiles, Max Wind SpeedMPH, Mean Wind SpeedMPH, Max Gust SpeedMPH,PrecipitationIn, CloudCover, Events, WindDirDegrees
2012-12-1,46,38,32,45,34,30,97,89,79,30.30,30.07,29.82,10,6,2,13,9,18,0.00,6,Rain,140
2012-12-2,48,44,40,48,41,36,99,89,76,30.10,29.95,29.80,10,7,1,16,9,20,0.00,8,,279
2012-12-3,62,50,39,57,46,36,96,88,78,30.13,29.91,29.65,10,7,2,22,8,31,0.00,7,,159
2012-12-4,58,44,30,54,33,17,87,70,59,30.19,29.95,29.70,10,10,7,24,17,32,0.00,4,,268
2012-12-5,31,26,22,23,20,17,93,71,57,30.44,30.35,30.20,10,10,10,20,12,29,0.00,5,,352
2012-12-6,41,32,26,36,25,21,83,72,61,30.29,30.03,29.85,10,10,3,16,9,24,0.00,6,Rain-Snow,165
2012-12-7,42,38,33,37,29,24,85,73,64,30.02,29.96,29.84,10,10,10,13,8,16,0.00,8,,359
2012-12-8,33,32,30,31,24,19,96,74,61,30.19,30.06,29.97,10,9,0,13,7,17,0.00,8,Snow,20
2012-12-9,33,29,25,30,24,19,94,78,63,30.25,30.09,29.77,10,8,1,20,8,26,0.00,7,Snow,89
2012-12-10,29,28,26,26,22,19,94,80,72,29.90,29.76,29.67,10,9,3,15,9,21,0.00,8,Snow,11
2012-12-11,32,26,21,28,21,17,93,77,61,29.98,29.92,29.88,10,9,1,22,7,30,0.00,7,Snow,182
2012-12-12,38,32,27,29,23,18,83,70,65,30.24,30.16,29.99,10,9,3,23,13,30,0.00,5,Snow,219
2012-12-13,45,41,37,32,30,27,78,66,53,30.19,30.10,30.01,10,10,10,18,12,26,0.00,2,,215
2012-12-14,37,34,30,32,27,25,84,78,66,30.27,30.21,30.09,10,10,10,13,8,17,0.00,4,,13
2012-12-15,40,34,30,36,32,27,95,87,74,30.20,29.95,29.63,10,8,3,20,13,28,0.00,6,Rain-Snow,118
2012-12-16,44,40,37,44,40,36,99,98,93,29.62,29.56,29.53,10,4,0,12,7,16,0.00,8,Fog-Rain,190
2012-12-17,40,36,32,39,34,30,99,87,76,29.69,29.66,29.60,10,9,2,14,9,,0.00,8,Rain-Snow,288
2012-12-18,37,34,30,34,32,29,100,96,81,29.78,29.72,29.68,10,8,2,6,1,,0.00,7,Rain-Snow,215
2012-12-19,39,34,29,32,31,28,100,89,73,30.12,29.98,29.79,10,9,4,10,2,,0.00,7,Rain,217
2012-12-20,35,32,30,33,31,28,100,93,80,30.08,29.64,29.29,10,4,1,23,10,30,0.00,8,Snow,77
2012-12-21,32,30,28,29,26,21,96,84,69,29.97,29.64,29.32,10,4,1,29,20,38,0.00,8,Snow,353
2012-12-22,32,30,28,27,23,21,86,77,64,30.05,29.99,29.87,10,10,10,23,16,32,0.00,7,,293
2012-12-23,32,29,26,27,20,16,80,71,64,30.03,29.96,29.86,10,10,10,21,14,28,0.00,8,,314
2012-12-24,27,26,25,26,22,19,98,83,71,30.09,30.00,29.96,10,7,1,9,5,,0.00,8,Snow,179
2012-12-25,28,26,25,20,18,13,78,68,55,30.41,30.29,30.09,10,10,7,13,8,18,0.00,8,Snow,349
2012-12-26,26,24,21,20,17,15,81,74,68,30.38,30.25,30.14,10,10,10,17,9,21,0.00,7,,54
2012-12-27,28,23,19,21,18,14,83,75,66,30.19,30.16,30.13,10,10,10,13,7,17,0.00,6,,12
2012-12-28,28,26,23,23,20,19,87,82,73,30.15,30.09,30.00,10,10,7,8,5,,0.00,8,,91
2012-12-29,29,26,23,24,20,18,85,78,66,30.03,29.96,29.92,10,10,3,12,6,16,0.00,8,Snow,12
2012-12-30,29,27,25,25,21,18,94,78,62,30.17,30.11,29.99,10,9,2,18,8,22,0.00,8,Snow,223
2012-12-31,33,26,20,29,21,10,88,75,62,30.06,29.93,29.83,10,9,5,21,13,31,0.00,8,Snow,287